EW2353 Weather Reports


Display with metric or nautical units.
time (UTC)temp
F
wind
direction
speed
MPH
gust
MPH
rain 1hr
in
rain 24hr
in
rain mn
in
humidity
%
barometer
mb
20260905003827 76 37 0.0 1.0 0.00 0.08 0.08 94 1014.4
20260905003320 76 37 0.0 0.0 0.00 0.08 0.08 94 1014.4
20260905002833 77 37 0.0 1.0 0.00 0.08 0.08 93 1014.4
20260905002325 77 37 0.0 1.0 0.00 0.08 0.08 93 1014.5
20260905001818 77 37 0.0 1.0 0.00 0.08 0.08 93 1014.5
20260905001311 78 37 0.0 0.0 0.00 0.08 0.08 92 1014.5
20260905000823 78 37 0.0 0.0 0.00 0.08 0.08 91 1014.4
20260905000320 79 37 0.0 1.0 0.00 0.08 0.08 90 1014.4
20260904235813 80 37 0.0 1.0 0.00 0.08 0.08 89 1014.4
20260904235326 80 37 0.0 0.0 0.00 0.08 0.08 88 1014.4
20260904234819 80 37 0.0 1.0 0.00 0.08 0.08 88 1014.4
20260904234312 80 37 0.0 1.0 0.00 0.08 0.08 88 1014.4
20260904233825 81 37 0.0 1.0 0.00 0.08 0.08 88 1014.5
20260904233317 81 37 0.0 1.0 0.00 0.08 0.08 87 1014.5
20260904232814 81 37 0.0 1.0 0.00 0.08 0.08 86 1014.5
20260904232327 81 38 0.0 1.0 0.00 0.08 0.08 87 1014.5
20260904231820 81 38 0.0 2.0 0.00 0.08 0.08 86 1014.4
20260904231313 81 38 1.0 2.0 0.00 0.08 0.08 85 1014.5
20260904230826 82 65 0.0 3.0 0.00 0.08 0.08 84 1014.4
20260904230339 82 77 2.0 3.0 0.00 0.08 0.08 84 1014.5
20260904225851 82 79 0.0 2.0 0.00 0.08 0.08 84 1014.6
20260904225322 82 49 0.0 1.0 0.00 0.08 0.08 82 1014.6
20260904224835 82 49 0.0 3.0 0.00 0.08 0.08 83 1014.6
20260904224327 82 49 1.0 3.0 0.00 0.08 0.08 84 1014.6
20260904223822 82 215 0.0 2.0 0.00 0.08 0.08 83 1014.6
20260904223315 82 215 0.0 2.0 0.00 0.08 0.08 84 1014.5
20260904222828 82 215 1.0 2.0 0.00 0.08 0.08 83 1014.7
20260904222321 81 181 0.0 2.0 0.00 0.08 0.08 85 1014.7
20260904221814 81 202 1.0 4.0 0.00 0.08 0.08 84 1014.6
20260904221347 80 210 2.0 4.0 0.00 0.08 0.08 85 1014.7
20260904220818 80 163 1.0 4.0 0.00 0.08 0.08 87 1014.7
20260904220351 80 135 1.0 5.0 0.01 0.08 0.08 87 1014.8
20260904215842 79 198 2.0 10.0 0.03 0.08 0.08 88 1014.7
20260904215313 79 161 5.0 10.0 0.04 0.08 0.08 87 1014.6
20260904214810 79 123 3.0 8.0 0.08 0.08 0.08 89 1014.7
20260904214324 79 143 3.0 8.0 0.08 0.08 0.08 89 1014.9
20260904213816 78 75 2.0 6.0 0.08 0.08 0.08 89 1015.0
20260904213349 77 82 2.0 6.0 0.08 0.08 0.08 90 1015.5
20260904212841 76 77 4.0 6.0 0.08 0.08 0.08 91 1015.9
20260904212312 76 74 0.0 6.0 0.08 0.08 0.08 92 1016.5
20260904211825 75 79 2.0 6.0 0.08 0.08 0.08 93 1016.8
20260904211318 75 108 1.0 7.0 0.08 0.08 0.08 92 1016.9
20260904210832 76 75 4.0 8.0 0.08 0.08 0.08 91 1017.2
20260904210323 76 46 5.0 9.0 0.06 0.06 0.06 90 1017.4
20260904205820 77 17 4.0 11.0 0.05 0.05 0.05 87 1017.4
20260904205313 79 57 5.0 17.0 0.04 0.04 0.04 83 1016.8
20260904204825 81 347 7.0 17.0 0.00 0.00 0.00 78 1016.4
20260904204318 84 34 10.0 17.0 0.00 0.00 0.00 71 1015.6
20260904203812 89 53 9.0 17.0 0.00 0.00 0.00 63 1015.4
20260904203344 94 26 1.0 3.0 0.00 0.00 0.00 65 1015.0
20260904202813 94 125 0.0 1.0 0.00 0.00 0.00 58 1015.2
20260904202326 95 125 0.0 3.0 0.00 0.00 0.00 58 1014.8
20260904201823 95 204 0.0 4.0 0.00 0.00 0.00 60 1014.8
20260904201315 95 262 2.0 7.0 0.00 0.00 0.00 59 1015.1
20260904200829 95 256 2.0 8.0 0.00 0.00 0.00 59 1015.2
20260904200322 95 243 1.0 5.0 0.00 0.00 0.00 59 1015.2
20260904195834 94 246 2.0 7.0 0.00 0.00 0.00 60 1015.2
20260904195326 94 262 4.0 10.0 0.00 0.00 0.00 59 1015.2
20260904194839 95 222 4.0 8.0 0.00 0.00 0.00 59 1015.3
20260904194311 95 264 2.0 8.0 0.00 0.00 0.00 59 1015.2
20260904193823 95 234 1.0 6.0 0.00 0.00 0.00 62 1015.2
20260904193320 95 293 0.0 5.0 0.00 0.00 0.00 61 1015.2
20260904192813 95 288 3.0 6.0 0.00 0.00 0.00 62 1015.2
20260904192346 94 236 2.0 8.0 0.00 0.00 0.00 59 1015.2
20260904191818 94 285 3.0 8.0 0.00 0.00 0.00 62 1015.3
20260904191311 93 250 2.0 8.0 0.00 0.00 0.00 60 1015.4
20260904190823 93 264 0.0 10.0 0.00 0.00 0.00 61 1015.5
20260904190316 94 259 3.0 10.0 0.00 0.00 0.00 60 1015.5
20260904185830 94 236 4.0 10.0 0.00 0.00 0.00 64 1015.5
20260904185322 94 254 5.0 9.0 0.00 0.00 0.00 60 1015.7
20260904184838 94 264 5.0 8.0 0.00 0.00 0.00 58 1015.8
20260904184310 95 250 2.0 7.0 0.00 0.00 0.00 59 1015.9
20260904183823 95 255 0.0 7.0 0.00 0.00 0.00 59 1015.9
20260904183316 95 227 4.0 9.0 0.00 0.00 0.00 55 1016.0
20260904182829 95 255 2.0 9.0 0.00 0.00 0.00 64 1016.0
20260904182342 96 250 2.0 6.0 0.00 0.00 0.00 60 1016.1
20260904181813 95 354 1.0 4.0 0.00 0.00 0.00 61 1016.1
20260904181326 95 314 0.0 10.0 0.00 0.00 0.00 63 1016.2
20260904180819 94 266 4.0 11.0 0.00 0.00 0.00 59 1016.4
20260904180316 94 265 6.0 11.0 0.00 0.00 0.00 60 1016.5
20260904175829 94 273 5.0 11.0 0.00 0.00 0.00 60 1016.6
20260904175321 94 38 1.0 9.0 0.00 0.00 0.00 62 1016.7
20260904174813 94 278 5.0 8.0 0.00 0.00 0.00 61 1016.8
20260904174327 94 282 3.0 10.0 0.00 0.00 0.00 62 1016.8
20260904173839 94 27 4.0 10.0 0.00 0.00 0.00 63 1016.8
20260904173331 94 244 3.0 8.0 0.00 0.00 0.00 61 1017.0
20260904172843 95 360 1.0 5.0 0.00 0.00 0.00 64 1017.0
20260904172314 95 248 0.0 3.0 0.00 0.00 0.00 63 1017.0
20260904171811 95 326 0.0 4.0 0.00 0.00 0.00 63 1017.0
20260904171323 94 354 1.0 6.0 0.00 0.00 0.00 65 1017.1
20260904170836 95 279 2.0 6.0 0.00 0.00 0.00 64 1017.0
20260904170328 95 307 1.0 5.0 0.00 0.00 0.00 62 1017.0
20260904165821 95 284 0.0 5.0 0.00 0.00 0.00 64 1017.1
20260904165314 94 268 0.0 7.0 0.00 0.00 0.00 64 1017.2
20260904164827 94 360 1.0 7.0 0.00 0.00 0.00 63 1017.2
20260904164319 94 264 1.0 6.0 0.00 0.00 0.00 65 1017.2
20260904163811 94 267 0.0 6.0 0.00 0.00 0.00 65 1017.1
20260904163328 93 261 1.0 6.0 0.00 0.00 0.00 67 1017.2
20260904162821 93 281 1.0 8.0 0.00 0.00 0.00 65 1017.2
20260904162314 93 271 2.0 7.0 0.00 0.00 0.00 67 1017.3
20260904161826 93 270 4.0 7.0 0.00 0.00 0.00 64 1017.3
20260904161339 93 27 3.0 10.0 0.00 0.00 0.00 64 1017.3
20260904160811 93 264 0.0 10.0 0.00 0.00 0.00 64 1017.3
20260904160323 93 285 1.0 7.0 0.00 0.00 0.00 63 1017.3
20260904155835 93 274 1.0 13.0 0.00 0.00 0.00 66 1017.3
20260904155347 92 255 1.0 13.0 0.00 0.00 0.00 65 1017.3
20260904154819 92 277 1.0 9.0 0.00 0.00 0.00 66 1017.3
20260904154316 91 277 0.0 9.0 0.00 0.00 0.00 68 1017.3
20260904153828 91 277 2.0 6.0 0.00 0.00 0.00 66 1017.3
20260904153321 91 291 2.0 8.0 0.00 0.00 0.00 69 1017.3
20260904152814 91 265 1.0 6.0 0.00 0.00 0.00 69 1017.2
20260904152327 90 265 4.0 8.0 0.00 0.00 0.00 67 1017.2
20260904151819 90 252 3.0 8.0 0.00 0.00 0.00 69 1017.1
20260904151332 90 286 3.0 9.0 0.00 0.00 0.00 69 1017.1
20260904150823 90 278 5.0 9.0 0.00 0.00 0.00 68 1017.2
20260904150321 89 227 2.0 6.0 0.00 0.00 0.00 72 1017.1
20260904145814 89 262 3.0 9.0 0.00 0.00 0.00 71 1017.1
20260904145326 89 255 5.0 9.0 0.00 0.00 0.00 69 1017.1
20260904144819 89 249 4.0 8.0 0.00 0.00 0.00 70 1017.0
20260904144312 89 265 2.0 8.0 0.00 0.00 0.00 70 1017.0
20260904143845 88 352 1.0 9.0 0.00 0.00 0.00 72 1017.0
20260904143317 87 257 3.0 9.0 0.00 0.00 0.00 71 1017.0
20260904142830 87 257 4.0 8.0 0.00 0.00 0.00 74 1017.0
20260904142323 87 258 4.0 8.0 0.00 0.00 0.00 73 1017.0
20260904141820 87 264 4.0 8.0 0.00 0.00 0.00 73 1017.1
20260904141312 87 241 2.0 8.0 0.00 0.00 0.00 74 1017.0
20260904140825 87 274 4.0 8.0 0.00 0.00 0.00 74 1016.9
20260904140318 86 250 3.0 6.0 0.00 0.00 0.00 73 1016.9
20260904135851 86 226 2.0 5.0 0.00 0.00 0.00 75 1017.0
20260904135343 86 252 3.0 6.0 0.00 0.00 0.00 76 1016.9
20260904134814 85 252 2.0 6.0 0.00 0.00 0.00 78 1016.9
20260904134327 85 274 2.0 6.0 0.00 0.00 0.00 77 1016.9
20260904133820 84 263 4.0 7.0 0.00 0.00 0.00 77 1017.0
20260904133337 84 238 4.0 7.0 0.00 0.00 0.00 78 1017.0
20260904132829 84 257 3.0 7.0 0.00 0.00 0.00 79 1017.0
20260904132321 83 233 4.0 6.0 0.00 0.00 0.00 80 1017.0
20260904131813 83 233 3.0 6.0 0.00 0.00 0.00 80 1017.0
20260904131326 83 254 2.0 4.0 0.00 0.00 0.00 82 1017.0
20260904130819 82 227 1.0 4.0 0.00 0.00 0.00 82 1017.0
20260904130332 82 243 1.0 4.0 0.00 0.00 0.00 83 1016.9
20260904125824 82 258 0.0 0.0 0.00 0.00 0.00 85 1016.9
20260904125317 81 250 0.0 0.0 0.00 0.00 0.00 86 1017.1
20260904124814 81 228 0.0 0.0 0.00 0.00 0.00 88 1017.0
20260904124326 80 228 0.0 0.0 0.00 0.00 0.00 90 1017.0
20260904123819 79 228 0.0 1.0 0.00 0.00 0.00 89 1017.0
20260904123312 78 228 0.0 1.0 0.00 0.00 0.00 90 1016.9
20260904122825 78 228 0.0 1.0 0.00 0.00 0.00 92 1016.8
20260904122338 77 228 0.0 0.0 0.00 0.00 0.00 92 1016.8
20260904121850 76 229 0.0 0.0 0.00 0.00 0.00 93 1016.8
20260904121322 76 229 0.0 0.0 0.00 0.00 0.00 95 1016.7
20260904120814 75 229 0.0 0.0 0.00 0.00 0.00 96 1016.8
20260904120331 74 228 0.0 0.0 0.00 0.00 0.00 97 1016.6
20260904115823 74 228 0.0 0.0 0.00 0.00 0.00 97 1016.6
20260904115316 73 229 0.0 0.0 0.00 0.00 0.00 97 1016.6
20260904114828 72 229 0.0 0.0 0.00 0.00 0.00 97 1016.5
20260904114321 72 229 0.0 0.0 0.00 0.00 0.00 97 1016.4
20260904113834 72 229 0.0 0.0 0.00 0.00 0.00 97 1016.4
20260904113325 71 229 0.0 0.0 0.00 0.00 0.00 97 1016.3
20260904112838 71 228 0.0 0.0 0.00 0.00 0.00 97 1016.3
20260904112327 71 228 0.0 0.0 0.00 0.00 0.00 97 1016.3
20260904111841 71 228 0.0 0.0 0.00 0.00 0.00 97 1016.2
20260904111316 70 228 0.0 0.0 0.00 0.00 0.00 97 1016.1
20260904110829 71 229 0.0 0.0 0.00 0.00 0.00 97 1016.0
20260904110321 71 229 0.0 0.0 0.00 0.00 0.00 97 1015.9
20260904105834 71 228 0.0 0.0 0.00 0.00 0.00 97 1015.8
20260904105325 71 228 0.0 0.0 0.00 0.00 0.00 97 1015.7
20260904104818 71 229 0.0 0.0 0.00 0.00 0.00 97 1015.7
20260904104311 71 229 0.0 0.0 0.00 0.00 0.00 97 1015.5
20260904103824 71 229 0.0 0.0 0.00 0.00 0.00 97 1015.6
20260904103317 71 229 0.0 0.0 0.00 0.00 0.00 97 1015.6
20260904102814 71 228 0.0 0.0 0.00 0.00 0.00 97 1015.6
20260904102326 71 228 0.0 0.0 0.00 0.00 0.00 97 1015.6
20260904101820 71 229 0.0 0.0 0.00 0.00 0.00 97 1015.6
20260904101312 71 229 0.0 0.0 0.00 0.00 0.00 97 1015.7
20260904100825 71 228 0.0 0.0 0.00 0.00 0.00 97 1015.7
20260904100318 71 229 0.0 0.0 0.00 0.00 0.00 97 1015.6
20260904095811 71 229 0.0 0.0 0.00 0.00 0.00 97 1015.7
20260904095323 72 229 0.0 0.0 0.00 0.00 0.00 97 1015.7
20260904094820 72 229 0.0 0.0 0.00 0.00 0.00 97 1015.7
20260904094333 72 229 0.0 0.0 0.00 0.00 0.00 97 1015.7
20260904093825 72 229 0.0 0.0 0.00 0.00 0.00 97 1015.7
20260904093318 72 229 0.0 0.0 0.00 0.00 0.00 97 1015.7
20260904092811 72 229 0.0 0.0 0.00 0.00 0.00 97 1015.6
20260904092323 72 228 0.0 0.0 0.00 0.00 0.00 97 1015.7
20260904091816 72 229 0.0 0.0 0.00 0.00 0.00 97 1015.7
20260904091349 73 229 0.0 0.0 0.00 0.00 0.00 97 1015.7
20260904090821 73 228 0.0 0.0 0.00 0.00 0.00 97 1015.8
20260904090318 73 229 0.0 0.0 0.00 0.00 0.00 96 1015.8
20260904085811 73 228 0.0 0.0 0.00 0.00 0.00 96 1015.8
20260904085324 73 228 0.0 0.0 0.00 0.00 0.00 96 1015.7
20260904084817 73 228 0.0 0.0 0.00 0.00 0.00 96 1015.7
20260904084330 73 229 0.0 0.0 0.00 0.00 0.00 96 1015.7
20260904083822 73 229 0.0 0.0 0.00 0.00 0.00 96 1015.7
20260904083315 73 229 0.0 0.0 0.00 0.00 0.00 96 1015.7
20260904082812 74 229 0.0 0.0 0.00 0.00 0.00 96 1015.7
20260904082325 74 229 0.0 0.0 0.00 0.00 0.00 96 1015.8
20260904081838 74 229 0.0 0.0 0.00 0.00 0.00 96 1015.8
20260904081310 74 228 0.0 0.0 0.00 0.00 0.00 96 1015.7
20260904080822 74 229 0.0 0.0 0.00 0.00 0.00 96 1015.7
20260904080315 74 229 0.0 0.0 0.00 0.00 0.00 96 1015.6
20260904075828 74 229 0.0 0.0 0.00 0.00 0.00 96 1015.8
20260904075321 74 228 0.0 0.0 0.00 0.00 0.00 96 1015.8
20260904074814 74 229 0.0 0.0 0.00 0.00 0.00 96 1015.8
20260904074311 75 229 0.0 0.0 0.00 0.00 0.00 96 1015.8
20260904073844 75 229 0.0 0.0 0.00 0.00 0.00 96 1015.8
20260904073316 75 229 0.0 0.0 0.00 0.00 0.00 96 1015.8
20260904072829 75 229 0.0 1.0 0.00 0.00 0.00 96 1016.0
20260904072341 74 229 0.0 1.0 0.00 0.00 0.00 96 1016.0
20260904071813 74 236 0.0 0.0 0.00 0.00 0.00 97 1016.0
20260904071326 74 236 0.0 0.0 0.00 0.00 0.00 96 1016.0
20260904070818 74 235 0.0 0.0 0.00 0.00 0.00 96 1016.1
20260904070331 74 235 0.0 0.0 0.00 0.00 0.00 97 1016.1
20260904065824 74 236 0.0 0.0 0.00 0.00 0.00 97 1016.1
20260904065321 73 236 0.0 0.0 0.00 0.00 0.00 96 1016.2
20260904064813 73 236 0.0 0.0 0.00 0.00 0.00 96 1016.2
20260904064326 73 236 0.0 0.0 0.00 0.00 0.00 97 1016.3
20260904063819 73 235 0.0 0.0 0.00 0.00 0.00 96 1016.3
20260904063332 73 236 0.0 0.0 0.00 0.00 0.00 96 1016.3
20260904062824 73 236 0.0 0.0 0.00 0.00 0.00 96 1016.4
20260904062317 73 235 0.0 0.0 0.00 0.00 0.00 96 1016.4
20260904061830 73 235 0.0 0.0 0.00 0.00 0.00 96 1016.3
20260904061326 73 236 0.0 0.0 0.00 0.00 0.00 96 1016.3
20260904060819 73 236 0.0 0.0 0.00 0.00 0.00 96 1016.4
20260904060312 73 236 0.0 0.0 0.00 0.00 0.00 96 1016.5
20260904055824 73 235 0.0 0.0 0.00 0.00 0.00 96 1016.4
20260904055317 73 235 0.0 0.0 0.00 0.00 0.00 96 1016.4
20260904054830 73 236 0.0 0.0 0.00 0.00 0.00 96 1016.5
20260904054322 73 235 0.0 0.0 0.00 0.00 0.00 96 1016.5
20260904053815 73 236 0.0 0.0 0.00 0.00 0.00 96 1016.5
20260904053312 73 236 0.0 0.0 0.00 0.00 0.00 96 1016.4
20260904052825 73 235 0.0 0.0 0.00 0.00 0.00 96 1016.4
20260904052317 73 236 0.0 0.0 0.00 0.00 0.00 96 1016.4
20260904051830 73 236 0.0 0.0 0.00 0.00 0.00 96 1016.4
20260904051322 73 236 0.0 0.0 0.00 0.00 0.00 96 1016.4
20260904050815 73 236 0.0 0.0 0.00 0.00 0.00 96 1016.4
20260904050348 73 235 0.0 0.0 0.00 0.00 0.00 95 1016.4
20260904045820 73 236 0.0 0.0 0.00 0.00 0.00 95 1016.4
20260904045317 73 235 0.0 0.0 0.00 0.00 0.00 95 1016.4
20260904044810 74 235 0.0 0.0 0.00 0.00 0.00 95 1016.3
20260904044323 74 235 0.0 0.0 0.00 0.00 0.00 95 1016.4
20260904043836 74 235 0.0 0.0 0.00 0.00 0.00 95 1016.4
20260904043327 74 235 0.0 0.0 0.00 0.00 0.00 95 1016.4
20260904042820 74 235 0.0 0.0 0.00 0.00 0.00 95 1016.4
20260904042313 74 236 0.0 0.0 0.00 0.00 0.00 95 1016.3
20260904041826 74 235 0.0 0.0 0.00 0.00 0.00 95 1016.3
20260904041319 74 236 0.0 0.0 0.00 0.00 0.00 95 1016.3
20260904040812 74 236 0.0 0.0 0.00 0.00 0.00 95 1016.3
20260904040324 74 235 0.0 0.0 0.00 0.00 0.00 95 1016.2
20260904035817 74 236 0.0 0.0 0.00 0.00 0.00 95 1016.3
20260904035310 74 236 0.0 0.0 0.00 0.00 0.00 95 1016.2
20260904034823 74 236 0.0 0.0 0.00 0.00 0.00 94 1016.2
20260904034316 74 235 0.0 0.0 0.00 0.00 0.00 94 1016.2
20260904033828 75 235 0.0 0.0 0.00 0.00 0.00 94 1016.2
20260904033320 75 235 0.0 0.0 0.00 0.00 0.00 94 1016.2
20260904032816 75 235 0.0 0.0 0.00 0.00 0.00 94 1016.2
20260904032329 75 236 0.0 0.0 0.00 0.00 0.00 94 1016.2
20260904031822 75 235 0.0 0.0 0.00 0.00 0.00 94 1016.2
20260904031314 75 235 0.0 0.0 0.00 0.00 0.00 94 1016.3
20260904030827 75 235 0.0 0.0 0.00 0.00 0.00 94 1016.3
20260904030320 75 235 0.0 0.0 0.00 0.00 0.00 95 1016.3
20260904025812 75 236 0.0 0.0 0.00 0.00 0.00 95 1016.4
20260904025324 75 236 0.0 0.0 0.00 0.00 0.00 95 1016.3
20260904024822 75 236 0.0 0.0 0.00 0.00 0.00 95 1016.2
20260904024314 75 236 0.0 0.0 0.00 0.00 0.00 95 1016.3
20260904023847 75 236 0.0 0.0 0.00 0.00 0.00 96 1016.4
20260904023319 75 236 0.0 0.0 0.00 0.00 0.00 96 1016.4
20260904022832 75 236 0.0 0.0 0.00 0.00 0.00 96 1016.4
20260904022323 75 236 0.0 0.0 0.00 0.00 0.00 95 1016.3
20260904021816 75 236 0.0 0.0 0.00 0.00 0.00 95 1016.3
20260904021329 75 236 0.0 0.0 0.00 0.00 0.00 95 1016.3
20260904020822 75 236 0.0 0.0 0.00 0.00 0.00 94 1016.3
20260904020319 75 235 0.0 0.0 0.00 0.00 0.00 94 1016.3
20260904015812 75 235 0.0 0.0 0.00 0.00 0.00 94 1016.4
20260904015344 76 236 0.0 0.0 0.00 0.00 0.00 94 1016.4
20260904014816 76 236 0.0 0.0 0.00 0.00 0.00 94 1016.5
20260904014328 76 235 0.0 0.0 0.00 0.00 0.00 93 1016.5
20260904013821 76 236 0.0 0.0 0.00 0.00 0.00 93 1016.6
20260904013333 76 236 0.0 0.0 0.00 0.00 0.00 93 1016.5
20260904012825 77 235 0.0 0.0 0.00 0.00 0.00 93 1016.5
20260904012317 77 236 0.0 0.0 0.00 0.00 0.00 92 1016.5
20260904011835 77 236 0.0 0.0 0.00 0.00 0.00 92 1016.5
20260904011327 78 236 0.0 0.0 0.00 0.00 0.00 92 1016.4
20260904010820 78 236 0.0 0.0 0.00 0.00 0.00 92 1016.4
20260904010312 78 235 0.0 0.0 0.00 0.00 0.00 91 1016.4
20260904005825 78 236 0.0 0.0 0.00 0.00 0.00 90 1016.3
20260904005318 79 235 0.0 0.0 0.00 0.00 0.00 90 1016.2
20260904004811 79 236 0.0 0.0 0.00 0.00 0.00 89 1016.1
20260904004324 80 236 0.0 0.0 0.00 0.00 0.00 89 1016.1